Mount Ida, AR

11:01 AM CDT on August 31, 2016 (GMT -0500)
Mount Ida

Weather History for KMWT - July, 2013

Change the Weather History Date:

Wednesday, July 17, 2013

  Actual Average (KHOT) Record (KHOT)
Temperature  
Mean Temperature 82 °F -  
Max Temperature 97 °F 94 °F 109 °F (1980)
Min Temperature 68 °F 70 °F 57 °F (1990)
Cooling Degree Days 16    
Growing Degree Days 32 (Base 50)    
Moisture  
Dew Point 67 °F    
Average Humidity 65    
Maximum Humidity 96    
Minimum Humidity 33    
Precipitation  
Precipitation 0.00 in - - ()
Sea Level Pressure  
Sea Level Pressure 30.19 in    
Wind  
Wind Speed 2 mph (SE)    
Max Wind Speed 10 mph    
Max Gust Speed 17 mph    
Visibility 10 miles    
Events      
Averages and records for this station are not official NWS values.
T = Trace of Precipitation, MM = Missing Value Source: NWS Daily Summary

Daily Weather History Graph

Daily Weather History Graph

Search for Another Location

Airport or City:

Trip Planner

Search our weather history database for the weather conditions in past years. The results will help you decide how hot, cold, wet, or windy it might be!

Date:

Astronomy

Jul. 17, 2013 Rise Set
Actual Time 6:14 AM CDT 8:26 PM CDT
Civil Twilight 5:45 AM CDT 8:54 PM CDT
Nautical Twilight 5:10 AM CDT 9:29 PM CDT
Astronomical Twilight 4:32 AM CDT 10:07 PM CDT
Moon 3:19 PM CDT (7/17) 1:17 AM CDT (7/17)
Length of Visible Light 15h 09m
Length of Day
14h 12m
Waxing Gibbous, 67% of the Moon is Illuminated
Jul 17
Waxing Gibbous
Jul 22
Full
Jul 29
Last Quarter
Aug 6
New
Aug 14
First Quarter

Hourly Weather History & Observations

Time (CDT) Temp. Heat Index Dew Point Humidity Pressure Visibility Wind Dir Wind Speed Gust Speed Precip Events Conditions
12:53 AM 73.9 °F - 69.1 °F 85% 30.21 in 10.0 mi Calm Calm - N/A   Clear
1:53 AM 73.0 °F - 69.1 °F 87% 30.20 in 10.0 mi Calm Calm - N/A   Clear
2:53 AM 71.1 °F - 68.0 °F 90% 30.20 in 10.0 mi Calm Calm - N/A   Clear
3:53 AM 70.0 °F - 68.0 °F 93% 30.20 in 10.0 mi Calm Calm - N/A   Clear
4:53 AM 69.1 °F - 66.9 °F 93% 30.21 in 8.0 mi Calm Calm - N/A   Clear
5:53 AM 68.0 °F - 66.9 °F 96% 30.22 in 8.0 mi Calm Calm - N/A   Clear
6:53 AM 68.0 °F - 66.9 °F 96% 30.23 in 7.0 mi Calm Calm - N/A   Clear
7:53 AM 73.9 °F - 70.0 °F 87% 30.24 in 10.0 mi Calm Calm - N/A   Clear
8:53 AM 80.1 °F 83.2 °F 70.0 °F 71% 30.25 in 10.0 mi East 3.5 mph - N/A   Clear
9:53 AM 84.0 °F 89.0 °F 71.1 °F 65% 30.25 in 10.0 mi Variable 3.5 mph - N/A   Clear
10:53 AM 84.9 °F 89.4 °F 70.0 °F 61% 30.24 in 10.0 mi Variable 3.5 mph - N/A   Scattered Clouds
11:53 AM 89.1 °F 93.7 °F 69.1 °F 52% 30.24 in 10.0 mi Calm Calm - N/A   Scattered Clouds
12:53 PM 90.0 °F 92.8 °F 66.9 °F 46% 30.23 in 10.0 mi Variable 3.5 mph - N/A   Mostly Cloudy
1:53 PM 91.9 °F 94.5 °F 66.0 °F 42% 30.21 in 10.0 mi Variable 4.6 mph - N/A   Scattered Clouds
2:53 PM 95.0 °F 96.0 °F 63.0 °F 34% 30.18 in 10.0 mi Variable 3.5 mph - N/A   Clear
3:53 PM 95.0 °F 95.6 °F 62.1 °F 33% 30.16 in 10.0 mi Variable 5.8 mph 16.1 mph N/A   Partly Cloudy
4:53 PM 95.0 °F 95.6 °F 62.1 °F 33% 30.14 in 10.0 mi SE 10.4 mph 17.3 mph N/A   Clear
5:53 PM 95.0 °F 95.6 °F 62.1 °F 33% 30.13 in 10.0 mi SE 8.1 mph - N/A   Clear
6:53 PM 91.9 °F 93.3 °F 64.0 °F 39% 30.12 in 10.0 mi Variable 4.6 mph - N/A   Partly Cloudy
7:53 PM 88.0 °F 90.3 °F 66.0 °F 48% 30.13 in 10.0 mi SE 4.6 mph - N/A   Clear
8:53 PM 82.0 °F 84.5 °F 66.9 °F 60% 30.14 in 10.0 mi Calm Calm - N/A   Clear
9:53 PM 79.0 °F - 66.9 °F 66% 30.16 in 10.0 mi Calm Calm - N/A   Clear
10:53 PM 75.9 °F - 66.9 °F 74% 30.17 in 10.0 mi Calm Calm - N/A   Clear
11:53 PM 73.0 °F - 68.0 °F 84% 30.17 in 10.0 mi Calm Calm - N/A   Clear